[[{"header":{"parameterUnit":"m.s-1","parameterCategory":1,"la1":30.2992,"la2":30.254,"lo1":-89.0895,"lo2":-89.0443,"dy":0.0025,"dx":0.0025,"nx":19,"ny":19,"refTime":"2026-03-07T03:00:00:Z","depth":0,"parameterNumber":2,"parameterNumberName":"U-component_of_WINDS"},"data":[0,0,0,0.2633,0.2634,0.2674,0.2674,0.2723,0.2724,0,0,0,0,0,0,0,0,0,0,0,0.2618,0.2619,0.2633,0.2634,0.2674,0.2674,0.2723,0.2724,0,0,0,0,0,0,0,0,0,0,0,0.2618,0.2619,0.2619,0.2634,0.2674,0.2674,0.2723,0.2694,0,0,0,0,0,0,0,0,0,0,0.2655,0.2639,0.2619,0.2619,0.2634,0.2674,0.2674,0.2693,0.2696,0.2704,0,0.2709,0,0.2717,0.2727,0.2727,0,0,0,0.2636,0.2636,0.265,0.2619,0.2635,0.2674,0.2657,0.2694,0.2698,0.2708,0.271,0.2712,0.2718,0.2727,0.2727,0.2764,0.2764,0,0,0.2634,0.2624,0.2647,0.2652,0.2644,0.2655,0.2658,0.2697,0.2699,0.271,0.2713,0.2719,0.2727,0.2728,0.2764,0.2764,0,0,0,0.2626,0.2623,0.2635,0.265,0.2657,0.2656,0.2659,0.2697,0.2702,0.2714,0.2719,0.2728,0.2728,0.2764,0.2764,0.2758,0,0,0,0.2625,0.2618,0.2634,0.2629,0.2656,0.2677,0.2659,0.2699,0.2704,0.2719,0.2728,0.2729,0.2764,0.2764,0.2758,0.2757,0,0,0,0.2617,0.2617,0.2622,0.2628,0.2645,0.2677,0.2684,0.27,0.2707,0.2727,0.2729,0.2764,0.2764,0.2758,0.2757,0.2764,0,0,0,0.2606,0.2616,0.2622,0.2636,0.2645,0.2673,0.2684,0.2705,0.2722,0.2728,0.2764,0.2764,0.2758,0.2757,0.2764,0.2769,0.277,0,0,0.2614,0.2617,0.2627,0.2633,0.2657,0.2667,0.2691,0.2716,0.2726,0.2751,0.2752,0.2758,0.2757,0.2764,0.2777,0.2778,0,0,0,0.2626,0.2633,0.2641,0.2656,0.2675,0.2691,0.2712,0.2721,0.2743,0.2737,0.2763,0.2763,0.2767,0.277,0.277,0.2775,0.2765,0.2765,0.2765,0.2625,0.2638,0.2654,0.2672,0.2687,0.2709,0.2722,0.2739,0.2748,0.2754,0.2761,0.2767,0.277,0.2771,0.2775,0.2765,0.2765,0.2764,0.2764,0.2638,0.265,0.2662,0.2682,0.2697,0.2714,0.2737,0.2743,0.2762,0.2763,0.2768,0.2768,0.2771,0.2776,0.2764,0.2764,0.2764,0.2764,0.2764,0.2639,0.2647,0.2658,0.2681,0.2698,0.2717,0.2734,0.2747,0.2759,0.2763,0.2773,0.2773,0.2775,0.2767,0.2767,0.2767,0.2767,0.2767,0.2767,0.2635,0.2648,0.2661,0.2682,0.2693,0.2711,0.2734,0.2746,0.2763,0.277,0.2771,0.2779,0.2768,0.2766,0.2767,0.2767,0.2767,0.2767,0.2767,0.2644,0.2644,0.2665,0.2676,0.2703,0.2719,0.2735,0.2759,0.2771,0.278,0.2788,0.2777,0.2782,0.2781,0.2779,0.2784,0.2784,0.2784,0.2784,0.2645,0.2648,0.2672,0.269,0.271,0.2726,0.275,0.2768,0.2788,0.2796,0.2797,0.2795,0.2794,0.2799,0.2799,0.2797,0.2806,0.2806,0.2806,0.2652,0.2658,0.2675,0.2693,0.2715,0.2734,0.2757,0.2778,0.28,0.2808,0.2803,0.2802,0.2799,0.2797,0.2805,0.2803,0.28,0,0]},{"header":{"parameterUnit":"m.s-1","parameterCategory":1,"la1":30.2992,"la2":30.254,"lo1":-89.0895,"lo2":-89.0443,"dy":0.0025,"dx":0.0025,"nx":19,"ny":19,"refTime":"2026-03-07T03:00:00:Z","depth":0,"parameterNumber":3,"parameterNumberName":"V-component_of_WINDS"},"data":[0,0,0,3.1533,3.1535,3.1678,3.1678,3.1853,3.1855,0,0,0,0,0,0,0,0,0,0,0,3.1486,3.1487,3.1532,3.1536,3.1678,3.1678,3.1853,3.1855,0,0,0,0,0,0,0,0,0,0,0,3.1486,3.1487,3.1488,3.1536,3.1677,3.1678,3.1853,3.1748,0,0,0,0,0,0,0,0,0,0,3.1611,3.1564,3.1487,3.1488,3.1537,3.1677,3.1678,3.1743,3.1754,3.1786,0,3.1813,0,3.1837,3.1866,3.1867,0,0,0,3.1539,3.1555,3.1597,3.1489,3.1538,3.1677,3.1614,3.1749,3.1762,3.1801,3.1816,3.1823,3.184,3.1867,3.1868,3.2043,3.2044,0,0,3.1531,3.151,3.1588,3.1605,3.1583,3.161,3.1619,3.1757,3.1772,3.1817,3.1827,3.1843,3.1868,3.187,3.2042,3.2043,0,0,0,3.1506,3.1504,3.1543,3.1598,3.1624,3.1614,3.1624,3.1766,3.178,3.1829,3.1845,3.1869,3.1871,3.2042,3.2043,3.2057,0,0,0,3.1502,3.149,3.1539,3.1528,3.1621,3.1696,3.1629,3.177,3.1787,3.1844,3.1869,3.1873,3.2041,3.2042,3.2055,3.2068,0,0,0,3.1478,3.1487,3.1506,3.1526,3.1587,3.1695,3.1717,3.1774,3.1797,3.1867,3.1874,3.204,3.2042,3.2053,3.2065,3.2109,0,0,0,3.1447,3.1515,3.1506,3.1588,3.1585,3.1702,3.1717,3.1804,3.1866,3.187,3.2041,3.2043,3.2053,3.2063,3.2107,3.2144,3.2157,0,0,3.1521,3.1523,3.1574,3.157,3.1683,3.1682,3.1798,3.1874,3.19,3.1994,3.1998,3.2056,3.2065,3.2109,3.2233,3.2243,0,0,0,3.159,3.1626,3.1661,3.1719,3.178,3.1833,3.1894,3.1923,3.2004,3.1944,3.2083,3.2089,3.2116,3.2135,3.2143,3.2169,3.205,3.205,3.2049,3.1664,3.1695,3.1781,3.1829,3.1885,3.1948,3.1998,3.2047,3.2059,3.2092,3.2121,3.2193,3.2214,3.222,3.2246,3.2141,3.2141,3.2141,3.2141,3.1777,3.1834,3.1851,3.1941,3.1972,3.2048,3.2112,3.2119,3.2194,3.2173,3.2198,3.2174,3.223,3.2255,3.2143,3.2142,3.2142,3.2142,3.2142,3.1831,3.1864,3.1898,3.1987,3.2053,3.2098,3.2171,3.2197,3.2221,3.2246,3.228,3.228,3.2285,3.226,3.226,3.2261,3.2261,3.2261,3.2261,3.1874,3.1912,3.197,3.2042,3.2084,3.2143,3.2208,3.225,3.2303,3.2317,3.2317,3.2328,3.2229,3.2205,3.2265,3.2265,3.2264,3.2264,3.2263,3.198,3.196,3.205,3.2093,3.218,3.2244,3.2276,3.2361,3.2399,3.2435,3.244,3.2363,3.2367,3.236,3.2341,3.2432,3.2432,3.2432,3.2432,3.2027,3.2031,3.213,3.2197,3.2265,3.2303,3.2406,3.2457,3.2508,3.2534,3.2524,3.25,3.2491,3.2501,3.2491,3.2473,3.2596,3.2597,3.2597,3.2095,3.2107,3.2189,3.2239,3.2309,3.237,3.2467,3.2543,3.2596,3.2604,3.2556,3.2549,3.2509,3.2495,3.2502,3.2487,3.2455,0,0]}]]